User: anonymous   Login
Location: Unspecified
(0.0000°N, 0.0000°E)
Time: 13:26:48
(UTC+02:00)
Language:

Cosmos 1538 Rocket - Orbit

View from above orbital plane
View from above orbital plane
View from above satellite
View from above satellite

Ground track
Ground track

The orbit data is extracted from the following two-line orbital elements,

1 14760U 84019B   15144.84011735  .00000145  00000-0  58963-4 0  9999
2 14760 074.0450 065.5223 0026976 111.7471 303.4366 14.35692008635327
Epoch (UTC): 24 May 2015 20:09:46
Eccentricity: 0.0026976
inclination: 74.0450°
perigee height: 753 km
apogee height: 792 km
right ascension of ascending node: 65.5223°
argument of perigee: 111.7471°
revolutions per day: 14.35692008
mean anomaly at epoch: 303.4366°
orbit number at epoch: 63532

The dashed part of the orbit path shows where the satellite is in the earth's shadow,  

DLR